Theta_e
334 334 333 331 333 336 334 335 335 336 335 335 335 333 332 333 332 332 332 331 331 329 328 329 329 328 328 328 328 328 332 332 332 333 334 335 336 338 340 339 339 339 336 336 336 336 335 334 333 332 332 331 331 330 330 330 330 331 337 336 335 334 332 330 329 329 328 328 328 328 327 327 327 327 326 325 325 325 325 325 325 325 324 324 324
334 333 332 332 333 332 333 333 333 333 334 333 334 332 333 334 332 331 331 331 330 329 328 327 329 330 329 327 327 328 331 332 332 332 333 335 336 338 341 340 339 339 338 336 337 337 336 335 335 333 333 332 331 331 330 330 329 330 336 337 335 334 332 331 330 329 328 328 327 327 327 327 326 326 326 326 325 325 324 324 324 324 324 323 323
334 334 333 333 332 330 329 331 332 333 335 334 335 331 333 332 331 330 329 329 328 327 328 327 328 328 328 327 326 327 329 332 333 333 333 334 335 337 339 341 340 338 338 337 338 337 337 336 336 333 332 332 332 331 330 330 329 329 331 335 335 334 334 332 331 330 329 327 328 327 326 327 326 327 326 325 325 325 324 324 324 324 324 324 324
334 335 333 332 331 329 329 330 331 333 333 333 333 333 333 333 332 331 331 330 329 327 327 324 326 327 327 326 326 327 327 329 331 333 333 333 335 336 336 338 340 339 339 338 339 339 337 337 337 336 334 333 332 331 330 331 329 330 330 334 334 335 334 333 331 330 329 328 327 326 327 326 327 326 326 325 324 323 324 324 324 323 323 323 323
330 331 333 330 330 329 330 330 331 334 333 332 332 334 334 333 333 333 330 328 328 326 329 325 324 326 326 326 326 326 325 328 328 331 333 333 334 335 336 336 337 338 338 339 338 339 339 337 336 336 335 334 333 332 331 332 330 331 330 331 333 333 335 333 332 330 329 328 327 327 327 326 326 326 326 325 325 324 323 323 323 323 323 323 323
330 329 330 331 330 330 331 333 334 334 333 332 332 333 333 332 331 330 331 328 325 326 322 323 323 325 325 326 325 326 328 326 326 329 333 332 332 332 334 335 335 336 336 340 339 338 337 339 337 337 335 335 335 335 332 332 332 329 331 331 331 333 334 334 333 331 330 330 328 327 327 326 326 325 326 325 324 324 323 323 323 323 323 323 322
333 331 330 330 330 331 330 331 330 330 330 329 329 329 330 331 330 328 329 325 325 326 323 322 322 326 328 328 328 330 330 330 330 329 330 333 331 332 333 334 334 335 335 336 339 338 338 338 339 338 336 335 336 335 335 333 333 330 331 332 331 331 332 335 334 333 332 331 329 328 328 327 326 325 325 325 324 324 324 323 323 322 322 322 321
335 330 328 330 331 329 329 330 328 330 330 329 329 328 329 331 332 330 329 327 327 327 329 328 329 329 330 329 329 329 328 329 330 330 330 328 332 332 332 332 333 334 336 334 334 336 337 338 338 338 339 337 336 336 336 334 334 333 331 332 332 330 331 332 335 335 333 332 331 329 328 327 325 325 325 325 325 324 324 323 323 322 322 321 321
334 334 331 331 332 331 331 330 329 329 329 328 328 330 329 333 331 332 329 326 328 329 329 329 329 330 330 328 329 329 329 328 328 330 331 329 327 332 331 331 333 338 335 333 334 334 336 337 338 337 337 338 338 337 337 336 335 335 335 334 333 332 331 331 332 334 335 333 332 331 330 327 326 326 326 325 325 324 324 323 323 322 321 321 321
332 331 331 332 330 329 328 326 328 327 328 327 327 331 331 332 329 330 329 327 325 326 327 327 331 331 329 329 327 327 327 329 329 331 330 330 330 328 329 331 332 333 332 333 333 333 333 335 337 336 336 335 337 339 337 337 337 337 336 335 334 332 331 332 333 333 335 334 333 332 330 328 327 326 325 325 325 324 324 323 323 323 322 321 321
330 330 329 330 330 329 328 328 328 325 326 326 327 329 328 330 329 326 328 327 326 327 327 328 330 331 330 329 329 328 329 329 331 330 330 330 331 332 332 331 331 333 332 332 332 332 332 333 334 334 335 336 336 338 338 339 338 337 338 338 336 334 333 333 333 333 334 335 335 333 331 329 328 326 325 325 325 324 324 324 323 323 322 322 321
332 331 330 329 328 327 326 329 329 328 329 328 324 326 327 327 326 326 326 328 329 328 328 327 328 327 327 329 331 331 328 326 326 328 330 331 330 330 331 332 330 331 332 331 333 333 332 332 333 333 334 335 336 336 337 337 336 339 338 339 338 335 335 335 333 333 334 334 335 334 332 329 329 327 326 326 326 324 324 324 323 324 322 322 321
327 332 332 333 329 328 326 326 328 327 327 326 326 327 326 326 328 326 325 325 325 327 328 327 326 322 323 327 327 331 328 328 327 327 330 331 331 330 331 329 329 330 330 331 331 334 333 333 331 332 331 332 332 334 334 334 334 336 340 339 339 337 337 337 335 334 334 334 335 335 333 331 329 328 328 327 327 326 325 324 323 323 322 322 321
321 324 325 330 328 327 326 326 327 326 325 326 326 329 326 326 326 324 326 323 321 325 327 326 321 319 318 319 323 326 325 325 326 328 331 334 332 331 330 329 329 331 330 329 330 330 332 333 333 333 332 332 331 332 333 334 334 335 337 340 340 338 337 338 338 335 334 334 334 335 334 332 330 330 329 328 328 327 326 325 324 323 323 322 321
319 322 322 323 325 325 326 328 329 328 325 324 324 325 325 326 326 324 321 323 322 325 324 325 319 321 320 318 316 316 319 324 327 331 334 334 334 332 332 331 330 332 332 330 330 329 330 331 332 332 333 333 333 332 332 333 334 334 336 337 340 340 338 338 339 338 335 335 335 334 335 333 331 331 330 330 329 328 327 326 325 323 323 322 321
321 321 320 321 321 322 326 328 329 329 326 324 323 324 325 325 325 325 324 320 321 321 325 323 322 321 315 314 315 314 312 316 320 324 328 329 332 332 334 332 331 333 331 331 332 331 330 332 330 330 331 331 332 332 331 331 333 332 331 334 335 337 340 340 338 340 338 336 335 335 336 334 333 332 331 330 330 329 328 327 326 324 324 322 322
320 321 323 320 319 319 322 324 327 328 328 326 324 324 323 321 323 321 321 320 320 322 324 325 324 326 319 315 312 311 311 315 318 321 326 327 329 332 331 332 333 330 331 332 333 331 333 333 332 332 331 331 331 332 332 331 331 334 334 333 334 335 338 340 340 340 340 339 337 336 335 336 335 333 332 331 330 329 328 327 327 325 325 324 323
318 319 320 321 318 319 319 320 320 319 323 326 326 326 325 324 323 323 323 324 322 322 323 325 325 325 324 321 318 313 314 317 316 312 322 327 327 330 331 332 331 332 333 333 333 333 331 331 331 331 331 331 331 332 333 333 333 331 332 333 331 330 329 333 341 341 340 340 340 338 337 337 336 334 333 332 331 330 329 329 327 326 325 326 324
317 319 320 321 319 316 313 314 319 320 320 319 320 321 324 327 326 323 322 322 323 320 320 321 324 324 324 324 325 324 322 317 313 316 313 319 324 326 327 331 331 332 332 333 333 332 332 334 333 334 332 331 330 330 331 332 332 332 332 330 328 327 325 324 328 339 341 340 339 340 339 338 337 335 334 333 331 331 330 329 329 328 326 326 326
320 319 318 318 316 314 313 312 314 317 318 317 316 317 319 322 323 324 323 322 322 321 319 319 319 318 321 322 324 324 324 324 320 316 312 310 314 321 324 326 328 328 330 331 332 333 333 333 334 334 333 334 332 331 331 332 330 330 331 327 326 326 324 322 320 320 328 339 341 339 339 338 337 336 335 333 332 331 331 330 330 329 328 327 326
318 316 315 317 317 314 313 313 310 311 315 315 316 317 316 317 317 317 317 320 321 320 319 318 319 317 319 319 322 322 322 322 322 320 315 311 311 314 315 321 323 326 328 330 330 330 332 335 336 335 333 331 332 332 332 330 330 330 329 323 324 323 322 321 318 318 318 326 337 341 339 339 337 337 336 334 333 332 331 331 330 330 329 327 327
314 314 314 314 313 313 312 313 314 315 314 313 313 314 314 315 315 316 316 315 316 317 318 318 319 318 319 319 315 318 318 318 318 318 317 315 311 311 312 313 313 317 324 326 329 330 331 333 332 333 332 332 332 331 331 330 329 330 328 325 323 322 320 317 315 314 316 321 329 335 340 339 338 337 337 336 336 334 332 332 332 331 331 329 328
313 312 312 312 313 316 314 314 315 317 316 313 313 314 315 315 316 315 315 315 313 313 313 314 312 311 312 312 311 311 311 310 309 310 309 307 307 306 308 308 307 306 310 325 329 330 330 330 331 331 332 332 332 332 332 331 329 328 326 325 322 322 320 316 314 314 315 322 327 332 336 339 339 338 338 337 336 335 334 334 333 332 331 331 329
312 312 313 313 313 312 313 313 314 312 312 314 315 316 316 316 315 314 312 313 313 313 311 311 311 311 310 310 309 310 310 309 310 310 308 308 308 306 306 307 307 307 310 312 323 327 327 327 327 328 329 329 330 333 332 334 331 327 326 323 322 319 318 319 316 315 312 319 323 328 334 337 339 339 338 336 337 336 336 336 335 333 332 332 331
312 312 310 311 313 314 314 312 312 313 313 313 313 314 314 313 313 313 313 312 312 311 310 309 310 309 309 309 310 310 309 310 311 309 309 308 306 302 305 307 304 305 307 307 306 309 313 317 317 315 315 316 326 329 332 332 330 324 325 325 321 318 317 317 318 317 315 314 318 324 327 332 336 339 337 337 336 335 336 334 329 325 325 328 331
312 311 313 314 314 315 313 311 311 313 313 312 313 314 314 314 313 313 313 312 312 311 310 309 309 309 310 309 308 309 307 309 309 308 307 306 303 303 304 304 305 305 308 306 307 305 308 311 314 315 316 323 328 328 329 329 328 322 322 327 320 317 315 314 313 314 313 312 311 313 316 321 326 330 332 335 335 327 323 323 320 319 318 319 324
314 314 315 313 314 313 312 312 312 311 312 312 315 314 314 314 314 313 312 311 311 311 309 309 310 309 309 309 309 307 306 308 308 309 308 308 306 305 304 301 301 302 304 305 307 306 306 308 311 311 312 313 317 323 327 327 325 320 317 327 326 316 314 313 312 312 311 309 308 308 309 312 315 318 318 318 317 319 323 323 320 317 316 316 318
315 314 315 316 315 314 313 312 312 312 312 312 312 312 312 312 311 309 309 314 310 309 309 309 308 307 308 308 306 305 308 309 308 308 308 310 309 307 304 302 300 297 301 302 303 305 308 306 308 310 311 311 312 313 322 323 323 319 322 323 324 323 314 312 310 310 310 310 309 307 307 308 310 311 313 316 318 319 320 320 320 318 316 316 318
315 314 315 316 315 313 313 313 312 312 311 312 312 311 312 312 310 309 309 311 311 310 309 308 308 308 307 308 305 306 307 308 308 309 309 307 308 308 307 304 303 299 298 297 300 301 305 307 305 307 311 311 310 312 312 316 316 313 313 314 315 315 318 313 310 309 309 308 307 308 307 308 309 311 313 316 317 319 318 317 316 316 316 318 319
316 316 315 316 315 320 313 312 312 312 311 312 311 311 312 311 311 311 311 310 309 309 310 308 307 307 308 307 306 304 307 307 309 310 308 307 307 308 306 306 304 301 301 298 299 302 303 306 307 306 309 309 309 311 312 311 312 312 311 312 313 313 311 311 311 309 309 307 306 305 305 306 308 310 313 314 314 315 316 315 314 315 316 317 317
316 314 314 316 316 315 314 312 312 312 312 311 311 310 311 310 310 310 310 309 308 307 308 308 309 308 307 305 306 305 304 304 306 310 309 307 306 305 305 305 307 304 303 301 298 301 306 305 306 309 307 307 308 308 310 310 312 311 310 310 312 312 311 312 310 309 309 309 308 306 306 307 307 308 310 312 314 313 313 313 316 315 315 315 313
315 314 315 316 316 315 314 313 313 312 311 312 310 309 309 309 311 310 309 310 309 307 307 308 311 308 306 304 305 305 305 305 305 305 305 307 307 307 306 306 305 306 304 302 300 301 304 305 306 307 307 307 307 306 306 307 310 311 310 310 311 311 312 312 311 310 309 308 308 308 309 310 309 308 309 310 310 311 312 311 314 314 312 311 312
316 315 315 316 316 315 315 315 314 313 312 311 310 308 309 309 308 309 308 309 308 306 306 306 309 307 308 307 305 306 305 304 303 304 305 304 306 306 306 304 303 304 304 302 300 300 301 304 305 305 307 307 306 306 305 305 306 308 310 308 309 309 309 309 310 308 307 306 306 306 306 306 305 306 305 305 306 308 308 308 310 309 310 310 308
318 317 315 316 316 316 315 315 314 314 313 312 310 310 308 309 307 312 309 308 307 307 306 305 305 309 304 304 306 306 306 304 304 305 305 305 304 302 304 306 304 304 304 302 300 299 299 301 303 305 306 307 305 305 305 305 305 306 306 306 307 307 308 308 307 309 306 306 305 304 304 305 305 305 305 304 304 305 306 307 307 307 307 306 306
317 318 317 317 316 316 315 315 315 314 314 312 311 311 309 310 307 309 309 307 307 306 305 305 306 307 304 305 305 305 307 304 305 304 305 305 304 303 302 303 302 302 304 304 301 299 299 300 302 303 303 304 303 304 304 305 305 306 305 305 305 307 308 308 308 309 307 305 305 305 304 303 303 303 304 304 304 304 304 304 305 305 304 304 304
318 318 318 317 317 316 315 314 314 314 314 313 312 312 312 311 310 310 309 307 307 308 307 306 306 306 305 305 305 306 306 304 304 304 303 303 303 302 301 301 301 302 302 302 302 300 299 298 298 300 302 301 301 303 304 305 304 303 304 304 304 305 304 305 305 306 307 306 304 304 304 305 305 304 303 303 304 304 304 304 304 304 304 304 303
318 318 318 318 316 315 315 314 314 314 314 313 313 312 312 312 311 311 309 308 308 308 307 307 310 306 306 306 306 305 304 303 303 303 302 302 303 302 300 300 300 302 302 302 301 301 299 297 298 299 301 301 303 303 303 302 302 303 303 303 304 304 304 305 307 308 306 306 306 306 306 306 305 305 305 304 304 303 303 304 304 303 303 304 303
319 319 318 317 318 316 315 314 314 314 315 314 313 313 313 312 311 311 310 309 309 308 307 308 307 307 306 306 305 304 303 302 302 302 302 301 302 300 299 299 299 299 298 298 298 298 297 297 297 297 298 300 300 300 302 303 302 301 301 302 302 302 303 304 305 308 311 310 309 309 306 305 305 305 305 305 304 303 304 304 304 304 304 304 304
315 315 317 317 317 318 318 317 315 315 316 317 316 316 315 313 312 311 310 309 309 308 308 308 307 306 306 305 304 303 303 302 302 301 299 299 300 297 298 296 296 296 296 296 296 296 295 295 295 296 297 298 299 297 300 302 301 300 299 300 300 302 303 303 303 305 306 307 305 304 305 304 305 305 305 304 304 304 304 303 304 304 304 304 303
314 314 315 315 314 315 316 316 316 316 316 315 316 316 316 315 312 311 310 309 308 308 308 307 306 305 305 305 304 303 303 303 300 297 297 295 296 294 294 296 296 295 294 295 295 294 294 294 293 293 294 295 295 296 299 298 298 297 300 299 297 297 299 301 302 302 304 305 304 306 306 307 306 305 305 304 304 303 303 303 305 305 305 304 303
316 315 315 314 315 314 315 315 315 315 316 316 316 316 315 315 313 311 310 310 309 308 307 306 305 305 304 304 304 304 308 306 302 301 300 300 294 291 292 294 296 293 293 293 294 292 292 292 291 293 291 292 292 293 293 293 294 294 297 298 297 298 298 299 301 303 304 303 303 303 304 306 305 305 306 306 307 306 307 306 306 306 305 303 303
316 315 314 314 315 314 314 314 314 315 316 317 315 309 310 315 315 314 311 310 309 308 307 306 304 304 303 303 308 312 306 302 298 295 294 296 298 296 293 293 293 293 292 292 291 292 292 291 290 290 290 290 290 292 293 294 295 295 296 295 294 296 296 297 298 299 302 299 298 298 299 303 303 303 304 304 306 306 306 307 308 308 306 304 303
316 316 315 315 315 315 315 315 314 315 316 317 306 302 302 305 313 312 311 309 309 308 307 305 303 302 302 303 306 305 303 301 298 293 293 293 293 294 295 297 297 293 292 292 291 291 292 292 292 291 289 290 291 292 292 293 293 294 294 294 294 294 293 293 292 296 300 298 297 295 296 300 301 300 301 302 303 304 304 304 302 301 301 300 301
316 313 313 315 315 315 315 314 313 313 314 310 302 301 301 300 304 312 311 309 309 308 307 305 304 303 302 303 304 304 300 299 298 297 295 294 293 292 292 292 292 293 295 293 293 291 290 290 290 291 290 290 291 292 292 293 293 293 294 293 293 293 292 291 291 292 296 298 295 294 294 297 300 299 298 300 302 302 303 302 301 301 300 301 300
310 313 314 314 314 314 314 314 314 313 313 307 301 301 300 299 298 304 311 310 308 307 307 306 305 303 302 303 303 304 303 306 305 300 298 296 295 293 293 293 293 292 290 290 291 294 292 291 291 291 291 292 292 293 293 293 293 293 294 293 293 292 292 291 292 292 294 296 294 293 293 295 297 296 296 299 300 301 302 301 301 301 300 300 301
304 305 305 307 308 309 312 313 314 314 314 308 300 300 300 298 296 299 310 309 307 306 306 306 305 303 302 302 303 303 303 304 303 302 300 297 296 295 293 292 292 294 293 292 291 291 292 292 291 291 293 293 293 294 295 295 294 294 293 293 293 292 292 292 293 293 294 297 293 293 292 293 295 295 295 297 299 300 300 301 300 300 300 300 300
306 306 305 305 307 309 309 310 309 310 314 305 299 299 298 296 295 301 306 307 304 304 304 304 303 302 302 303 302 302 302 303 302 301 299 296 295 296 293 293 293 293 294 294 293 292 293 293 292 292 293 293 294 294 295 295 295 295 296 295 294 293 293 292 292 292 292 294 294 292 289 292 294 294 294 296 298 299 299 299 300 300 300 300 299
304 305 304 304 304 305 308 307 308 306 309 302 298 297 296 294 297 304 304 303 302 302 301 302 301 301 301 301 300 300 300 301 299 295 296 297 295 293 292 291 291 291 292 296 296 296 296 295 294 294 294 294 294 293 293 293 293 293 294 294 292 291 290 289 289 290 290 292 294 292 290 291 293 293 294 296 297 297 298 299 299 300 300 300 300
300 300 302 302 303 303 303 304 304 300 301 295 294 294 293 294 298 301 301 300 299 299 299 299 299 300 301 302 301 301 301 301 295 291 290 294 294 292 291 290 291 291 292 293 295 293 292 291 291 291 291 291 291 292 292 292 292 292 290 289 288 289 288 287 288 288 289 289 291 293 291 290 292 293 293 294 295 295 296 297 299 299 299 299 298
299 299 300 302 301 300 302 303 303 298 291 292 292 292 294 295 297 299 298 298 298 298 298 298 299 300 303 307 304 301 298 294 288 289 290 294 291 290 289 289 289 288 289 290 292 292 291 291 291 290 290 290 291 291 292 292 292 293 289 287 289 288 288 288 287 288 288 289 290 293 290 290 292 292 292 293 293 294 295 296 297 298 300 299 296
298 299 300 300 297 297 297 299 301 295 291 292 292 293 294 295 297 297 298 297 297 296 297 297 299 300 298 294 296 294 292 290 288 289 289 291 288 287 287 286 286 286 287 287 287 287 287 287 287 288 288 290 291 290 291 292 292 293 291 290 290 289 288 288 288 288 287 287 290 292 289 289 290 292 291 290 289 291 294 295 295 298 301 300 298
Wind_Speed
3 3 3 2 2 2 1 4 4 3 4 3 1 2 2 3 2 2 3 4 5 5 6 6 2 2 0 2 3 4 5 7 7 6 4 4 5 7 10 10 10 10 12 12 13 13 13 12 12 12 11 10 9 8 8 6 7 5 10 10 9 9 8 6 6 7 7 8 8 8 8 8 8 8 8 8 9 9 10 10 11 11 11 11 12
3 4 4 3 3 2 3 4 3 2 3 3 2 2 2 1 1 2 4 5 5 6 5 3 3 1 0 2 3 2 5 7 7 7 6 4 6 7 11 10 10 10 10 11 12 13 13 13 13 12 12 11 8 8 9 7 6 7 8 9 10 9 8 7 6 6 7 7 8 8 8 8 8 8 8 8 8 8 9 10 10 10 11 11 11
3 4 4 4 4 2 2 3 3 2 2 1 3 4 4 3 3 4 3 5 5 4 3 4 4 3 3 3 3 3 4 7 7 7 7 6 5 6 8 12 10 11 11 9 10 12 12 12 12 12 12 12 10 9 7 9 8 6 7 9 8 9 9 8 7 6 6 7 7 7 8 8 7 8 8 7 8 8 8 9 9 9 10 10 11
3 3 3 4 3 3 3 3 4 2 4 5 3 2 2 3 4 3 3 3 4 1 2 3 3 5 4 5 3 4 4 6 8 8 8 7 6 5 6 8 11 10 11 10 9 10 12 12 12 13 13 12 12 11 10 9 10 9 7 9 8 8 10 9 8 7 6 6 7 7 7 7 8 7 8 8 7 7 8 8 8 8 9 10 10
3 1 3 4 3 3 4 3 3 7 6 4 2 3 3 4 4 3 4 4 3 3 1 2 1 2 2 5 3 4 3 5 7 7 8 8 7 6 6 7 7 9 10 11 9 10 10 11 12 12 11 13 13 12 11 11 11 10 9 9 8 8 11 11 9 8 7 7 7 7 7 7 7 7 7 7 7 7 7 7 7 8 8 9 9
4 2 2 4 5 3 1 7 7 6 4 3 2 0 2 3 5 3 4 3 4 1 3 1 0 1 3 3 3 4 7 6 3 4 8 7 7 6 5 6 6 6 6 10 9 9 10 10 11 11 11 12 12 13 12 12 11 12 11 10 10 8 9 12 11 10 9 8 7 7 7 7 7 7 7 7 7 7 7 7 7 7 8 8 9
5 5 2 3 6 2 6 6 1 2 2 2 1 1 2 3 3 2 1 2 1 2 3 3 4 6 6 6 5 4 6 5 6 5 1 2 7 7 7 6 6 6 6 6 8 9 10 10 10 10 12 11 11 12 13 12 12 12 11 11 11 10 9 12 12 11 10 9 8 8 8 8 8 7 7 7 7 7 7 7 7 7 7 7 7
5 6 2 2 4 6 8 4 2 2 2 1 1 1 3 3 1 2 5 6 5 4 7 6 5 5 4 4 2 3 4 5 4 5 3 4 4 4 6 6 7 6 7 6 5 7 10 9 9 9 10 11 11 11 11 11 12 12 11 11 11 10 10 10 12 12 11 10 10 8 8 8 7 8 7 7 7 7 7 7 7 7 7 7 7
4 5 5 2 5 6 2 5 2 2 1 3 1 2 2 1 4 5 7 3 4 4 5 3 3 3 2 2 2 3 5 4 3 3 4 5 3 3 2 6 7 9 7 6 6 5 9 12 10 10 10 10 10 10 10 11 12 12 12 11 11 11 10 11 10 11 12 11 10 10 8 7 7 7 8 7 7 7 7 7 7 7 7 7 7
4 6 5 4 3 4 0 2 2 3 1 2 2 0 1 3 6 5 5 4 2 2 1 3 2 3 3 3 1 4 4 4 3 3 4 4 5 3 5 5 4 7 6 6 6 6 6 10 12 11 11 11 10 10 11 12 13 13 12 11 11 11 11 11 11 9 11 11 11 10 9 8 7 7 7 7 7 7 7 7 7 7 7 7 8
6 5 6 6 6 4 2 2 1 2 1 2 1 0 2 3 7 5 2 4 5 2 1 3 4 3 4 4 4 3 4 4 5 5 4 3 3 2 4 2 5 5 4 3 3 6 6 6 6 6 8 12 9 11 12 11 12 13 14 13 12 12 12 11 12 11 10 12 12 11 9 9 9 8 7 7 8 8 8 7 7 8 7 7 8
5 5 3 3 2 1 1 0 2 3 1 1 0 1 1 5 5 6 5 2 2 2 3 2 2 2 2 1 1 2 4 3 4 5 5 2 2 2 3 3 4 3 3 3 5 4 2 1 2 3 4 8 11 10 12 11 10 11 14 15 12 13 13 12 12 12 11 11 12 12 10 9 9 9 9 8 8 8 8 8 8 8 8 8 8
5 7 5 3 2 3 2 1 1 3 3 2 2 2 2 2 3 4 5 4 1 2 2 2 3 1 2 0 1 1 1 2 2 4 5 4 3 3 2 2 3 5 4 3 3 5 5 5 4 2 3 3 4 8 10 11 11 12 12 14 13 13 13 14 12 13 13 12 12 12 12 11 11 11 11 10 10 10 10 10 9 9 9 8 8
4 4 5 4 3 4 3 2 2 2 2 2 2 3 4 0 0 3 2 3 1 1 3 3 1 2 2 1 0 0 1 1 1 2 3 2 3 3 2 1 1 3 4 5 5 6 6 6 6 5 4 4 3 4 5 6 9 12 12 11 14 14 13 14 14 14 14 14 13 12 13 13 13 13 12 12 11 10 10 10 10 10 9 9 8
4 5 5 4 3 4 4 5 4 2 2 1 2 3 5 1 1 1 2 2 2 1 1 0 2 1 1 2 1 1 1 1 1 1 1 0 2 2 4 2 2 2 3 5 5 4 4 5 6 6 5 6 5 6 7 8 9 12 13 13 12 13 14 14 15 15 15 15 15 14 14 15 15 14 13 12 12 11 11 11 11 11 10 10 10
5 5 5 5 4 3 4 5 4 3 4 3 2 3 4 3 1 1 2 2 1 0 0 2 1 4 2 1 1 2 2 1 1 1 1 0 0 0 2 2 2 2 2 3 4 4 4 4 3 4 5 6 6 6 7 7 12 12 13 13 13 12 12 13 15 16 16 17 16 16 14 16 16 15 14 13 12 12 12 12 12 12 12 11 11
6 6 5 6 5 4 2 3 4 4 4 4 4 3 3 3 3 2 1 3 2 1 0 2 1 1 1 2 1 0 1 2 1 0 0 0 1 1 1 1 2 3 3 2 2 4 4 4 4 4 5 5 3 5 6 7 7 7 9 12 13 12 13 12 14 16 18 18 18 18 16 17 17 16 15 13 13 12 13 13 12 13 13 12 12
5 5 5 4 6 6 5 2 3 4 4 3 3 4 3 2 3 4 3 1 4 2 2 1 1 1 1 0 1 2 4 1 2 0 1 0 1 1 1 1 1 0 0 1 1 0 1 1 2 5 5 4 2 2 3 6 7 7 7 9 14 14 14 14 15 17 17 18 18 18 18 17 17 16 17 16 15 15 15 14 14 13 13 14 13
4 5 5 6 6 6 7 8 6 7 6 6 4 3 3 3 2 3 4 3 3 2 3 2 2 1 2 3 1 1 2 3 1 1 1 1 2 2 2 2 2 2 2 2 2 2 3 3 4 3 4 5 5 3 2 3 6 5 8 11 15 16 16 15 15 16 18 17 18 19 19 18 17 16 16 16 17 16 16 15 15 15 14 14 14
5 5 5 6 6 6 7 6 6 5 6 6 5 4 5 3 2 3 3 3 4 5 4 2 2 0 1 2 1 1 1 1 1 3 3 1 1 1 2 3 3 4 5 5 5 6 5 4 4 4 3 4 4 4 4 4 3 2 4 10 14 16 16 16 15 15 14 16 17 17 18 17 16 16 15 16 16 17 17 17 16 16 15 15 14
6 6 5 5 5 6 6 5 5 5 6 6 5 5 5 5 5 4 3 3 2 2 3 4 3 2 2 2 1 0 1 2 2 2 1 1 1 1 3 2 1 5 6 5 3 3 5 6 6 6 5 4 4 5 5 6 6 7 6 8 10 11 11 12 14 13 14 15 12 14 15 17 16 17 16 16 17 18 18 18 17 17 16 16 15
6 5 6 5 6 5 6 6 5 5 5 5 5 6 6 6 5 4 4 5 4 3 3 3 3 2 1 1 2 2 2 3 2 1 1 1 0 0 1 2 2 4 1 2 5 6 5 5 5 4 5 5 5 6 7 7 6 4 6 9 7 7 6 8 12 13 14 14 11 11 12 14 15 16 18 19 20 19 18 19 19 18 18 18 16
6 5 5 5 5 4 5 4 5 4 4 4 4 4 4 4 5 6 6 6 6 6 6 4 3 4 4 5 6 6 4 2 2 3 3 2 2 2 1 2 0 2 2 2 5 6 5 5 6 6 5 5 4 5 6 6 5 3 6 6 6 7 8 9 9 12 12 11 10 12 14 15 14 15 17 20 20 20 19 20 20 19 18 18 17
5 5 4 4 5 5 5 5 5 5 5 5 4 5 5 6 6 5 5 5 5 6 5 6 5 6 5 5 6 5 5 5 2 3 5 2 1 1 3 4 1 2 3 2 4 4 5 6 7 6 5 4 4 1 4 4 3 8 6 7 8 8 9 9 9 8 9 7 10 13 15 15 15 15 16 18 18 19 20 21 21 20 19 20 19
5 6 4 4 4 5 5 6 5 4 4 4 4 5 5 5 5 5 5 5 4 5 6 4 5 5 4 3 5 5 5 3 4 3 3 5 5 5 3 3 2 4 4 3 2 2 2 4 2 5 2 3 5 5 4 3 3 4 4 3 3 5 7 8 10 10 11 11 13 13 12 13 14 15 16 18 16 16 19 18 18 17 16 16 17
6 5 4 3 4 5 5 4 4 4 4 4 4 4 4 5 4 4 4 3 5 4 4 4 4 4 4 6 5 5 5 5 5 6 5 5 4 4 3 3 2 4 2 3 5 5 7 9 9 9 10 9 7 4 3 4 3 5 5 3 5 6 7 7 8 9 11 12 12 13 13 12 11 11 11 12 12 14 15 16 16 16 17 18 17
7 6 4 4 4 5 5 5 4 4 3 3 5 5 5 5 4 4 4 4 5 5 4 5 6 6 5 4 5 5 6 5 6 5 4 3 3 3 4 5 5 4 5 2 3 3 5 5 8 9 8 7 7 6 6 4 3 4 5 2 1 3 5 7 8 9 9 10 12 12 11 11 11 12 11 10 9 6 11 17 15 15 16 17 17
7 6 5 5 5 5 4 4 5 4 2 3 4 4 4 4 4 4 4 3 4 4 3 4 4 4 5 4 6 4 5 5 5 5 5 4 4 3 4 4 4 4 5 4 4 2 5 6 4 7 9 7 6 6 5 3 1 3 4 1 1 2 6 7 7 8 9 9 10 11 12 12 11 11 11 11 10 10 9 10 13 17 18 18 18
7 6 6 5 6 5 5 5 4 4 3 3 4 4 4 4 4 3 2 2 3 3 2 4 3 4 4 4 4 5 4 3 4 4 3 4 4 3 2 4 3 3 3 4 3 3 2 5 4 3 7 6 7 6 6 3 4 5 3 2 2 1 2 7 9 9 9 10 10 12 12 12 12 11 11 11 12 11 12 12 11 12 15 17 19
8 6 6 6 5 5 5 4 4 4 4 3 4 4 4 4 3 3 3 3 3 2 2 3 3 2 3 4 3 4 3 3 2 1 2 2 3 3 3 2 2 3 1 1 4 2 4 3 2 3 4 5 6 5 5 6 7 6 4 5 5 4 7 6 5 7 9 9 10 10 12 13 13 13 13 13 13 12 12 12 13 14 13 14 16
8 7 7 6 6 5 5 4 4 3 2 2 4 4 4 4 4 4 4 4 4 3 1 3 1 2 2 4 3 3 3 3 3 1 2 3 1 1 1 2 2 3 2 1 1 4 2 6 4 3 3 4 6 5 4 4 6 9 7 5 5 7 7 5 7 7 8 9 10 11 12 13 14 15 15 15 14 14 13 13 13 13 14 13 13
7 8 7 7 6 6 5 6 4 4 4 2 3 3 3 4 4 5 4 3 4 3 2 1 2 2 2 4 3 3 2 3 3 3 2 1 1 1 0 1 1 1 2 2 2 6 3 3 5 6 7 8 8 7 7 6 7 10 7 7 7 8 5 4 7 10 11 11 11 12 12 13 14 15 16 16 16 15 14 14 13 12 11 12 13
8 7 7 7 8 7 6 6 6 5 4 4 3 4 3 3 2 4 4 3 4 3 3 1 1 2 1 1 2 3 2 3 3 4 3 3 1 2 0 1 3 2 1 0 0 4 4 2 3 5 6 6 6 5 7 7 8 8 8 6 7 6 7 6 6 9 12 12 13 13 12 11 11 12 13 14 14 14 14 14 13 13 13 13 13
9 9 8 7 7 8 7 6 6 6 5 5 4 4 3 3 3 3 3 3 3 4 3 3 2 1 2 2 1 1 2 2 2 3 2 4 3 3 2 0 1 1 2 0 1 1 4 3 5 5 4 4 4 3 5 7 7 7 7 7 6 6 7 7 7 6 11 12 10 10 9 11 12 13 14 15 15 15 14 14 14 14 15 14 14
7 8 8 8 8 8 7 7 7 7 7 6 5 5 5 5 5 3 4 4 4 4 4 4 3 2 1 1 2 2 1 1 1 2 2 2 2 3 3 2 3 4 5 5 1 2 3 3 2 3 2 3 3 5 5 5 6 6 6 6 6 6 5 5 6 5 8 11 5 6 8 9 10 10 11 12 13 14 15 15 14 14 15 14 14
7 8 9 8 7 7 8 7 7 7 7 7 7 7 7 7 7 6 6 5 4 5 6 5 4 4 4 2 2 2 2 2 1 2 2 3 4 3 4 4 4 3 2 2 1 0 2 4 3 3 3 4 4 4 5 5 6 6 5 6 5 6 6 6 4 4 5 7 9 12 10 7 6 7 8 10 11 13 14 15 15 15 15 15 15
2 4 4 5 6 6 6 6 6 6 7 8 9 9 8 8 9 8 8 7 6 5 6 6 6 5 5 4 4 3 3 2 1 1 2 3 2 3 3 3 3 3 3 4 4 3 2 3 5 3 4 4 4 5 5 6 6 6 5 6 5 6 6 6 5 6 8 11 11 10 9 11 10 9 8 9 10 11 13 14 15 15 15 15 15
0 0 1 1 2 3 3 4 4 6 6 5 6 8 9 9 8 8 8 8 7 6 6 6 4 6 5 5 4 3 4 3 2 1 1 2 2 3 4 4 4 3 3 4 3 4 4 3 3 6 4 6 5 4 5 5 6 6 7 7 5 5 5 6 6 5 3 4 4 6 8 10 12 13 13 11 10 11 12 14 15 15 16 16 16
1 3 2 1 1 1 1 1 2 3 6 8 8 6 5 6 7 8 8 8 7 6 6 6 5 6 5 5 4 4 4 3 3 3 3 3 3 3 3 3 3 3 3 3 3 3 3 3 3 3 5 4 3 5 5 6 7 4 4 6 6 6 6 5 7 6 4 5 5 7 7 8 9 9 11 13 13 12 12 13 14 16 17 18 18
4 4 5 4 3 3 3 4 3 2 3 4 5 6 7 7 6 6 8 9 8 6 7 6 6 6 6 5 4 4 4 3 4 3 4 3 2 2 3 3 3 3 3 3 4 4 4 4 3 4 3 4 6 4 4 6 7 8 8 6 7 6 7 8 7 8 6 5 7 7 8 10 10 11 12 12 11 11 12 11 12 14 16 16 16
5 6 5 3 2 2 2 3 3 2 3 4 4 5 5 5 6 7 7 8 8 7 6 6 6 6 5 5 5 5 4 6 8 6 5 4 1 0 2 1 1 2 3 3 3 3 4 4 6 4 5 6 5 5 7 5 4 5 5 5 6 8 7 7 7 7 7 8 8 8 7 7 8 8 7 7 7 9 8 9 8 10 12 14 15
6 5 4 3 4 4 4 4 4 3 4 4 6 11 10 8 6 5 6 7 7 7 7 7 6 6 6 5 6 10 10 10 9 8 8 6 5 3 2 1 1 0 1 2 3 3 3 5 5 5 7 7 6 4 4 4 5 6 7 7 8 8 8 8 7 3 5 8 9 9 9 6 7 7 6 6 5 6 6 7 5 6 9 12 13
4 4 4 5 5 5 6 6 5 5 5 6 11 12 13 13 7 4 6 7 7 8 8 8 7 7 5 5 5 8 9 8 8 9 8 8 6 6 6 6 5 3 2 2 3 3 3 3 4 4 5 7 7 4 4 6 5 4 4 5 6 6 5 6 8 7 4 10 8 9 10 9 9 10 9 8 8 8 8 9 14 16 16 14 13
5 4 4 6 6 6 6 6 6 6 6 8 13 14 13 13 10 7 5 7 7 8 8 8 7 6 6 5 4 5 5 7 5 5 5 6 7 8 8 8 7 5 3 3 4 3 3 4 5 6 5 6 7 5 6 6 5 5 6 7 7 6 7 6 5 7 4 8 9 10 12 4 5 8 10 9 8 7 8 12 19 21 22 21 16
4 5 6 5 6 6 6 6 7 6 5 9 12 13 13 13 13 10 7 7 8 7 8 8 8 7 6 5 5 4 4 8 6 4 4 3 6 9 7 4 5 6 7 8 7 5 4 4 5 7 6 6 7 6 4 3 3 8 8 8 6 5 4 6 7 6 6 5 8 9 13 8 6 8 9 8 8 8 9 11 14 17 19 18 19
4 3 1 3 4 5 6 7 7 7 6 7 12 13 14 13 12 10 6 7 6 7 7 7 6 7 7 6 6 5 4 5 5 5 4 4 4 3 3 4 4 6 8 9 10 10 7 6 6 7 7 4 8 7 6 5 8 9 8 9 6 6 6 8 7 7 6 3 6 8 12 8 6 9 10 7 6 8 7 10 14 16 17 18 19
2 2 2 4 5 5 4 4 4 5 6 10 11 12 11 9 9 9 6 5 6 6 6 7 7 7 6 6 6 5 4 3 3 4 4 4 3 3 3 3 4 4 4 4 3 3 3 4 6 7 8 7 8 8 7 6 7 7 8 9 7 6 7 6 7 5 7 3 4 4 12 8 7 10 10 9 8 8 6 10 14 16 18 18 18
2 3 4 3 4 4 5 4 4 4 5 10 11 7 5 7 8 5 5 5 6 6 5 5 5 6 6 5 5 3 2 2 6 9 6 3 3 4 4 4 4 4 4 4 5 4 4 4 4 4 4 5 6 5 5 5 5 5 6 6 6 7 9 10 10 5 6 3 4 6 9 9 4 9 10 7 7 8 7 7 11 17 18 19 15
3 4 4 4 5 4 4 3 2 3 1 4 4 7 10 11 8 5 5 6 6 6 6 4 5 5 4 4 4 3 3 2 3 6 8 4 0 1 2 3 3 3 4 4 5 6 9 9 7 6 5 6 7 8 8 8 6 5 5 6 6 5 8 10 10 6 7 2 2 3 8 11 6 8 10 8 9 9 8 7 6 10 16 13 7
4 4 4 5 3 2 1 2 4 4 2 4 8 9 9 9 8 7 6 7 7 6 6 4 4 3 2 3 2 1 4 6 8 10 10 7 5 4 4 4 4 4 4 3 4 4 8 9 10 11 12 13 14 13 12 12 13 10 7 10 7 6 9 7 10 6 6 3 4 4 8 8 7 7 9 6 5 3 5 7 7 9 13 7 7
4 5 4 2 3 4 3 4 7 7 4 5 8 9 9 11 8 6 7 7 6 5 6 4 2 3 8 9 11 9 8 8 11 10 9 7 4 3 1 2 3 4 5 1 3 4 5 6 6 6 7 9 8 7 8 13 14 12 8 9 6 6 9 8 8 7 9 2 5 2 4 5 5 4 5 8 7 4 3 5 6 7 7 4 3
Wind_Direction
136 139 137 106 52 45 64 81 95 98 105 85 88 95 126 162 167 185 219 231 236 251 242 217 209 153 123 302 255 205 130 135 136 139 157 160 153 163 164 161 162 164 169 174 169 166 168 167 167 172 172 179 174 167 172 167 176 155 161 151 145 135 129 125 123 122 117 115 114 112 109 108 105 101 99 98 97 95 97 99 99 94 88 85 85
149 137 135 131 90 58 54 75 96 102 94 121 141 143 170 156 181 210 231 233 234 240 210 185 175 143 257 260 294 250 136 142 144 151 153 172 170 166 166 171 168 170 175 179 176 169 172 168 168 169 175 174 174 178 177 172 186 177 154 156 147 144 141 138 139 135 132 126 121 118 117 116 112 107 104 105 102 99 98 99 101 99 96 96 95
139 144 140 129 108 89 57 70 85 53 70 195 182 190 188 195 203 211 232 251 246 238 208 167 174 171 211 226 225 262 151 146 150 152 157 174 181 172 170 171 176 175 175 184 181 176 173 173 172 168 171 174 176 183 181 172 194 191 154 142 154 153 151 148 150 150 141 138 132 129 127 125 124 119 115 111 111 107 102 102 100 103 106 104 104
120 119 125 116 123 122 109 91 85 121 210 209 188 176 222 234 224 227 238 264 256 216 201 155 165 186 202 218 207 231 187 169 158 158 165 168 175 186 171 175 184 179 179 179 184 176 177 181 175 173 172 174 177 181 183 182 196 181 196 148 163 165 160 155 156 158 155 150 144 138 137 132 128 128 121 118 115 116 115 110 108 105 106 109 109
58 40 103 111 125 103 68 51 203 192 197 215 201 178 208 228 247 256 267 270 255 179 122 86 128 265 218 224 204 228 224 203 157 162 166 169 175 184 177 176 178 185 179 178 189 180 183 186 184 181 179 179 179 180 183 188 189 192 197 183 163 172 172 163 164 163 165 164 155 152 146 143 139 135 135 130 127 123 120 121 115 113 109 109 112
102 23 20 94 75 65 158 211 212 187 176 169 164 156 222 224 240 223 243 250 264 200 122 124 35 42 37 318 57 49 37 0 320 155 167 169 168 172 179 172 175 179 184 186 187 185 187 189 190 181 186 187 185 184 187 189 192 195 198 192 180 176 182 174 170 170 170 174 170 163 158 150 149 143 142 144 139 135 135 127 126 120 118 113 110
140 105 24 45 100 194 225 228 213 44 43 77 116 266 246 234 208 190 294 215 118 34 60 63 47 52 55 34 9 49 47 22 31 38 101 184 165 175 173 174 177 178 185 182 193 189 190 193 193 189 184 192 196 192 191 192 192 196 202 196 193 190 191 185 179 177 176 177 176 173 168 162 158 155 153 150 150 149 143 142 136 132 124 123 122
107 109 101 62 150 203 226 220 52 63 124 178 206 291 297 269 128 93 64 34 53 52 48 40 53 48 76 82 9 64 62 35 22 12 55 145 194 179 169 171 179 189 184 185 186 193 195 193 194 195 185 196 204 203 197 195 193 198 202 202 198 200 201 204 188 187 181 179 178 178 176 171 166 164 161 159 157 156 154 152 148 142 137 132 130
111 110 121 168 215 222 250 64 89 58 59 121 140 258 275 14 70 64 90 80 63 64 59 51 73 64 31 83 62 49 57 62 10 16 13 65 112 151 235 194 189 187 184 182 183 190 198 195 193 191 194 196 203 211 203 201 202 201 205 206 203 204 207 209 205 206 188 183 182 181 179 179 174 173 170 165 165 164 161 159 155 150 148 144 140
134 132 141 152 201 232 254 100 102 103 76 125 173 195 76 92 84 75 97 102 59 78 102 76 20 80 41 26 36 69 65 42 11 15 35 38 62 103 186 200 216 193 187 184 182 189 199 202 197 197 196 199 199 202 210 208 210 208 209 210 206 206 208 213 207 214 200 186 188 185 180 179 183 186 179 175 172 172 171 169 166 163 161 160 154
148 154 165 184 191 203 140 165 148 124 153 122 155 65 69 79 100 90 84 129 150 155 90 61 24 23 33 20 1 24 52 33 22 10 19 46 50 39 83 128 183 200 201 184 204 191 196 196 199 201 204 201 196 199 206 217 217 215 211 214 210 207 207 210 210 209 215 202 193 188 185 181 184 193 193 186 182 180 182 180 175 175 170 171 167
154 163 190 194 185 131 132 71 119 142 154 100 56 97 102 91 100 113 117 106 80 84 79 97 53 27 81 355 359 24 12 11 16 2 348 9 30 106 72 112 93 112 129 157 181 208 182 19 317 267 229 214 205 202 205 211 217 224 215 210 214 212 208 210 208 204 210 209 207 192 188 187 183 194 199 195 192 189 188 187 187 183 178 179 176
127 148 176 189 150 104 133 42 76 137 169 182 174 218 113 84 142 138 132 115 92 119 123 128 134 49 352 69 320 27 354 348 342 343 333 343 351 28 110 56 94 124 131 133 161 169 139 163 167 185 258 308 262 232 218 214 213 221 234 211 217 215 211 207 207 204 203 211 210 202 189 193 190 195 200 202 198 197 195 191 193 191 184 187 184
75 78 112 154 142 134 140 152 147 140 133 122 99 82 56 107 315 75 67 125 101 129 170 131 83 157 149 170 18 334 311 231 255 269 270 344 353 351 15 109 137 117 124 119 118 134 160 170 171 175 187 207 203 212 241 243 231 226 227 225 215 216 213 206 206 203 202 208 211 212 192 197 196 198 202 204 203 202 202 199 196 196 192 190 191
66 79 71 83 120 129 154 165 163 153 132 122 99 100 109 243 53 81 81 62 100 130 202 55 158 156 147 93 218 110 347 346 281 264 309 321 352 348 337 7 66 107 115 116 117 131 146 166 182 187 183 193 198 199 207 216 230 231 229 229 225 226 220 213 208 206 203 204 210 211 191 199 200 201 202 206 208 206 206 205 201 199 197 196 195
64 68 73 81 91 110 151 154 161 160 152 139 105 87 127 177 142 90 123 108 115 117 135 163 153 135 108 190 207 130 112 253 162 253 248 301 319 308 349 349 356 55 58 84 105 126 155 146 172 195 195 193 202 200 199 203 216 227 234 236 231 230 241 233 219 210 206 204 206 209 193 197 203 202 203 206 209 210 209 209 205 203 201 199 198
61 57 51 50 59 56 66 141 145 169 137 120 120 124 146 173 150 127 118 137 145 148 216 170 181 73 142 98 31 31 213 194 131 320 355 31 311 35 320 2 29 355 357 57 105 138 139 154 178 192 211 202 203 183 178 188 200 207 221 235 238 235 231 238 234 222 211 208 205 208 204 195 199 204 205 206 207 210 212 212 209 207 206 203 202
66 74 69 64 56 51 47 45 119 76 87 98 99 110 114 143 173 157 149 173 157 144 108 60 122 63 94 152 180 182 161 216 82 223 318 242 328 294 269 312 317 296 229 280 208 160 148 232 184 212 188 183 224 211 176 180 190 195 202 212 220 228 230 231 234 233 229 217 214 210 210 201 198 201 209 210 206 207 210 215 216 214 211 207 205
79 70 62 58 60 51 52 53 55 76 79 85 76 94 128 147 149 113 137 129 78 114 130 120 84 47 18 305 276 173 145 112 184 106 104 313 264 215 250 232 241 262 237 206 184 189 205 185 213 219 205 185 184 185 178 195 189 196 207 210 210 215 220 224 227 232 235 233 223 220 217 212 202 200 202 207 209 206 209 212 215 218 220 217 212
77 71 66 66 67 59 59 61 74 75 78 78 87 80 72 62 90 114 130 125 135 129 130 126 126 197 217 263 291 22 7 26 90 159 161 145 270 301 259 240 232 233 229 224 210 197 200 202 208 218 226 202 169 163 191 196 204 197 207 215 212 211 214 218 223 230 238 240 239 224 220 224 220 208 200 202 204 206 207 213 214 217 218 221 222
80 78 65 66 68 69 61 59 71 83 83 76 67 64 68 70 62 65 72 78 111 130 121 145 143 131 117 267 231 232 50 59 40 50 114 111 296 299 299 321 254 246 243 237 241 240 219 206 199 190 199 226 187 174 187 202 207 199 202 196 201 206 211 219 223 231 237 241 246 244 228 217 220 223 208 201 202 204 204 209 213 216 216 219 223
80 76 71 67 70 70 67 65 63 68 81 88 82 74 67 64 63 67 66 67 47 63 91 107 97 114 68 1 79 119 65 15 19 353 345 98 186 288 284 298 319 293 296 254 249 240 221 225 226 219 209 200 199 194 195 204 215 200 210 216 221 248 252 223 220 225 232 241 246 252 251 240 228 220 218 211 209 204 204 209 213 217 219 216 221
96 88 87 77 73 72 69 64 65 69 73 85 93 91 81 77 60 54 55 61 57 63 66 62 80 76 72 67 71 83 96 105 66 36 84 52 18 349 320 355 254 330 312 225 236 244 236 224 218 217 215 233 225 198 196 208 202 191 195 205 221 220 238 247 229 221 225 234 246 249 247 248 242 233 224 214 215 211 207 212 214 217 220 221 222
97 88 78 80 79 80 75 66 64 66 74 84 85 91 83 75 69 76 72 69 67 66 61 49 44 47 55 74 84 87 78 84 110 105 80 55 79 8 7 319 337 344 283 304 261 248 255 237 220 211 223 236 266 180 208 188 150 179 172 175 188 207 219 219 214 212 216 213 240 245 247 248 246 240 236 231 217 215 216 213 214 217 217 219 223
105 103 109 104 89 79 75 69 63 70 64 69 88 90 90 88 87 80 75 75 79 79 70 70 69 66 69 71 88 69 69 65 59 58 65 81 70 43 336 13 14 316 308 355 334 298 286 283 342 15 336 262 212 177 152 140 165 163 178 191 212 211 224 214 212 202 215 209 220 239 245 248 249 246 244 238 229 228 228 225 217 214 215 215 222
134 134 152 132 97 107 104 97 89 72 67 70 71 87 91 93 88 79 76 74 67 65 70 63 58 60 63 64 62 72 54 54 74 69 68 64 55 60 4 341 5 339 308 342 352 17 0 33 49 43 36 24 10 38 82 124 125 180 201 218 214 210 208 212 224 219 215 217 216 223 231 236 241 247 251 252 243 212 218 227 224 216 212 212 219
143 156 142 128 119 108 105 100 93 86 71 52 61 89 89 83 82 85 86 90 76 73 64 62 49 39 40 66 76 57 50 55 63 52 56 69 96 86 72 35 350 351 350 341 334 56 36 352 33 43 38 21 9 11 18 30 75 188 220 273 336 259 231 229 229 230 229 227 225 229 234 237 235 232 235 245 251 258 217 214 212 212 215 218 218
147 143 148 134 129 120 115 119 119 106 83 69 73 88 96 94 83 87 106 106 101 96 92 77 69 52 49 59 69 50 47 64 65 60 50 48 56 56 82 86 78 356 332 340 353 315 48 29 340 35 22 16 12 12 22 28 94 189 230 221 231 229 229 242 250 254 249 242 234 230 230 232 235 238 241 238 237 232 223 223 219 214 212 216 219
147 151 143 140 135 137 133 136 131 132 132 108 112 101 102 106 113 104 80 66 104 122 107 86 85 65 64 80 97 78 70 72 63 68 58 40 33 33 56 111 122 90 5 345 308 329 345 38 23 321 15 8 4 7 5 334 331 333 338 339 332 304 217 216 229 235 237 238 237 236 235 237 238 239 237 237 236 232 228 224 225 224 221 220 222
149 153 144 141 144 140 139 142 146 140 159 144 132 126 114 130 125 121 125 102 75 47 72 93 87 64 67 68 84 72 52 73 109 132 111 83 56 50 55 63 120 120 141 13 297 275 301 335 60 330 349 359 360 351 346 335 324 340 352 347 331 320 314 323 255 231 235 239 240 242 241 239 239 239 239 238 237 237 235 231 226 224 222 222 223
144 149 144 142 147 146 141 151 143 154 164 167 148 150 131 139 123 123 130 118 110 113 120 114 130 88 74 73 73 64 50 39 360 38 158 114 130 112 64 75 89 131 139 146 3 286 339 330 317 341 332 345 347 336 331 328 333 345 341 339 331 326 329 317 302 280 266 257 249 245 243 240 239 240 241 241 242 242 242 242 238 233 230 225 220
153 155 152 150 154 154 147 157 161 159 172 197 150 171 127 159 140 144 170 131 134 128 140 132 119 102 99 98 111 104 56 48 29 35 17 326 191 152 238 22 356 119 130 128 194 267 300 290 320 323 345 343 339 339 338 337 343 347 336 332 327 330 323 310 302 293 277 267 258 250 247 245 242 242 241 241 242 243 242 240 242 242 239 235 228
152 158 160 161 159 165 157 162 170 172 173 193 164 172 127 185 150 164 180 153 148 167 162 224 150 152 159 162 161 146 102 67 30 16 22 30 28 342 318 39 350 337 81 113 274 292 303 300 337 323 324 332 325 330 331 337 336 331 328 318 316 314 310 301 294 292 289 283 276 269 269 271 270 269 267 264 259 253 245 240 239 238 235 230 228
161 161 168 168 169 168 170 165 172 175 178 181 179 158 154 165 200 158 187 174 169 176 161 160 180 146 129 94 224 117 94 89 24 3 356 355 14 51 36 138 215 262 203 143 199 232 287 321 323 313 307 317 307 316 325 327 316 313 310 305 301 291 285 279 275 271 267 268 275 279 267 258 255 252 250 247 245 244 246 246 242 238 236 234 229
159 166 172 173 170 173 174 178 172 173 177 177 178 162 175 163 193 178 189 191 179 181 171 185 194 159 145 139 154 154 122 61 317 309 328 328 17 60 39 48 40 13 13 15 23 308 297 285 268 307 299 320 309 303 309 301 296 299 299 297 292 294 287 278 277 278 285 294 295 255 263 265 265 268 265 259 252 247 243 241 243 245 243 240 237
162 168 174 175 169 167 177 181 180 175 174 177 176 178 181 178 184 183 187 196 191 178 184 182 186 175 181 185 223 179 129 141 267 286 343 30 52 48 37 14 41 33 14 37 76 193 265 320 299 299 289 307 295 299 305 303 301 304 295 292 294 294 292 293 285 271 261 268 285 297 320 341 315 292 279 268 257 252 249 245 240 236 238 238 236
137 145 148 157 170 175 173 178 185 180 177 178 182 187 190 185 184 181 182 188 191 182 189 190 180 179 182 186 213 173 154 149 251 1 32 47 47 55 42 13 19 1 7 7 355 14 356 313 299 298 316 308 297 301 299 306 306 301 303 297 292 292 298 296 307 316 322 334 340 346 342 327 318 307 290 272 264 258 250 247 246 245 240 237 236
21 50 113 51 98 119 144 173 185 193 179 162 178 196 195 191 187 183 180 183 191 182 186 196 179 175 177 189 184 156 148 152 201 156 83 70 44 39 31 15 14 22 16 356 3 0 358 310 298 309 326 309 316 309 304 303 302 304 306 305 315 325 339 338 325 315 320 321 323 324 320 320 317 310 305 296 274 258 256 252 248 244 244 242 238
185 216 230 132 138 131 209 226 206 186 157 172 168 164 195 207 194 183 183 185 187 186 183 187 172 161 162 167 155 146 145 159 151 138 110 59 61 49 40 28 10 28 9 354 355 355 341 327 304 291 304 301 301 314 319 329 320 319 326 330 328 320 321 320 314 313 314 307 289 289 296 295 302 309 307 304 299 291 269 253 249 250 248 245 242
222 231 237 223 201 182 211 222 222 168 172 203 192 191 193 191 196 192 184 185 186 185 182 175 164 160 150 147 147 157 149 144 135 139 117 109 67 26 348 36 31 32 16 358 6 360 350 340 320 321 316 311 332 315 324 344 345 341 350 341 327 329 333 330 322 321 307 319 317 324 328 333 330 318 312 316 316 302 293 281 272 263 261 261 260
216 227 231 221 208 190 186 196 191 173 174 199 210 210 210 213 186 191 192 187 182 180 175 167 159 159 155 149 152 151 137 134 135 131 125 134 123 288 302 40 32 27 349 5 350 353 337 334 317 325 322 322 314 330 327 331 345 321 315 352 324 329 330 330 329 322 339 357 356 351 344 347 335 329 320 318 318 323 312 300 287 279 271 265 263
220 222 221 213 208 212 219 225 219 193 181 187 203 211 211 210 207 185 184 189 182 173 168 162 157 158 162 152 150 145 142 141 137 134 139 143 147 159 196 191 248 325 333 321 324 317 320 316 305 316 318 304 306 309 306 308 321 327 343 351 338 325 328 324 317 305 8 14 358 342 328 331 329 314 317 315 308 320 321 322 309 307 305 295 282
229 221 211 221 228 227 226 225 222 216 199 192 191 198 208 215 211 201 185 189 181 174 169 164 164 165 164 156 142 146 148 149 149 155 163 175 176 192 213 215 192 186 213 277 283 277 287 284 286 302 288 288 290 296 301 307 312 324 317 323 316 324 332 336 313 317 2 10 343 331 319 328 331 323 322 319 319 319 320 309 309 307 300 294 287
230 219 225 232 233 229 225 226 221 221 222 217 196 198 203 208 208 204 196 187 184 175 168 165 159 156 158 150 155 151 162 171 169 173 186 195 200 213 222 228 231 235 238 213 251 286 274 279 290 278 282 278 287 300 300 306 302 322 317 319 314 313 314 310 294 292 315 359 330 318 301 304 308 307 302 299 301 297 297 305 311 313 311 306 297
188 203 231 235 238 232 220 223 235 229 219 220 209 208 213 216 211 205 203 187 175 165 162 156 155 158 164 152 157 171 169 180 180 184 187 220 236 232 234 248 270 255 252 246 232 231 258 269 272 277 264 279 287 284 273 278 315 310 309 303 300 287 279 284 286 294 308 335 318 306 299 314 309 285 280 288 286 288 289 291 287 286 288 292 298
355 332 280 206 221 214 212 218 225 236 233 216 202 205 212 218 225 205 190 175 155 148 153 152 152 161 165 171 160 172 177 185 194 191 202 217 234 235 214 219 235 254 250 247 246 242 233 235 250 264 270 257 270 277 279 292 296 289 291 285 280 278 275 272 277 280 288 303 290 299 288 306 307 300 290 291 272 274 271 270 272 273 277 284 287
284 256 258 291 285 266 236 208 204 217 226 220 210 209 206 196 194 171 142 130 133 137 149 152 150 150 147 144 143 145 148 167 186 193 203 218 193 200 193 216 218 233 232 230 222 219 230 223 226 245 262 267 269 279 290 297 289 285 282 282 282 278 281 287 286 270 281 231 267 296 288 306 304 293 289 296 290 281 271 270 269 272 274 275 277
299 302 297 264 253 260 260 248 223 186 213 215 214 215 148 153 161 137 131 133 136 135 130 125 124 117 117 121 120 134 153 154 162 181 192 165 161 171 190 215 229 242 242 245 238 231 234 246 261 275 288 299 312 305 303 302 304 304 306 303 304 296 293 291 283 295 273 284 263 274 284 290 296 287 294 300 307 302 300 288 278 274 276 274 278
291 297 266 261 256 256 258 254 179 189 188 17 74 126 147 152 128 118 116 111 104 109 116 121 116 121 123 128 124 151 180 184 107 74 42 42 65 352 329 320 308 311 298 315 323 347 9 12 1 346 326 306 298 296 296 293 280 285 297 307 289 283 283 288 283 284 279 276 252 252 283 290 297 291 297 301 296 297 295 288 293 297 303 316 323
288 272 267 272 328 3 318 192 169 130 65 55 99 126 141 127 118 117 111 105 103 100 83 74 75 77 102 74 90 107 79 66 70 63 49 56 59 45 36 12 352 342 319 342 358 339 341 340 339 333 328 324 320 316 311 309 309 312 307 290 293 298 279 273 284 285 286 265 262 254 274 271 294 287 290 293 294 279 307 312 319 324 325 336 17
268 278 301 350 50 16 34 90 103 110 102 84 104 115 114 110 107 114 116 115 115 117 120 117 109 92 60 48 68 85 97 95 82 79 74 76 82 78 66 17 314 296 272 318 334 325 324 326 323 326 316 315 311 309 308 309 304 298 283 277 279 262 274 272 273 293 292 240 236 202 274 293 314 293 332 329 312 291 286 311 325 339 334 354 4